TimeCST,TemperatureF,Dew PointF,Humidity,Sea Level PressureIn,VisibilityMPH,Wind Direction,Wind SpeedMPH,Gust SpeedMPH,PrecipitationIn,Events,Conditions,WindDirDegrees,DateUTC
12:12 AM,23.0,21.2,93,30.17,10.0,NNW,4.6,-,N/A,,Clear,340,2013-12-01 06:12:00
12:33 AM,23.0,21.2,93,30.18,10.0,NW,3.5,-,N/A,,Clear,310,2013-12-01 06:33:00
12:53 AM,23.0,21.2,93,30.17,10.0,WNW,3.5,-,N/A,,Clear,300,2013-12-01 06:53:00
1:12 AM,19.4,17.6,93,30.16,10.0,Calm,Calm,-,N/A,,Clear,0,2013-12-01 07:12:00
1:33 AM,21.2,21.2,100,30.17,10.0,WNW,3.5,-,N/A,,Scattered Clouds,290,2013-12-01 07:33:00
1:52 AM,21.2,19.4,93,30.17,7.0,NW,3.5,-,N/A,,Scattered Clouds,310,2013-12-01 07:52:00
2:13 AM,19.4,19.4,100,30.16,7.0,North,3.5,-,N/A,,Scattered Clouds,360,2013-12-01 08:13:00
2:32 AM,21.2,19.4,93,30.18,7.0,WNW,5.8,-,N/A,,Clear,300,2013-12-01 08:32:00
2:53 AM,19.4,19.4,100,30.18,7.0,NW,3.5,-,N/A,,Clear,310,2013-12-01 08:53:00
3:13 AM,19.4,19.4,100,30.18,7.0,NW,4.6,-,N/A,,Clear,310,2013-12-01 09:13:00
3:33 AM,17.6,17.6,100,30.18,7.0,NNW,3.5,-,N/A,,Clear,340,2013-12-01 09:33:00
3:53 AM,17.6,17.6,100,30.18,7.0,NNW,3.5,-,N/A,,Clear,330,2013-12-01 09:53:00
4:12 AM,19.4,19.4,100,30.18,7.0,NW,3.5,-,N/A,,Clear,310,2013-12-01 10:12:00
4:32 AM,17.6,17.6,100,30.18,7.0,Calm,Calm,-,N/A,,Clear,0,2013-12-01 10:32:00
4:53 AM,17.6,17.6,100,30.17,7.0,NNW,4.6,-,N/A,,Clear,340,2013-12-01 10:53:00
5:13 AM,17.6,17.6,100,30.18,7.0,Calm,Calm,-,N/A,,Clear,0,2013-12-01 11:13:00
5:32 AM,17.6,17.6,100,30.17,5.0,Calm,Calm,-,N/A,,Clear,0,2013-12-01 11:32:00
5:53 AM,17.6,17.6,100,30.17,5.0,Calm,Calm,-,N/A,,Clear,0,2013-12-01 11:53:00
6:13 AM,17.6,17.6,100,30.17,5.0,Calm,Calm,-,N/A,,Clear,0,2013-12-01 12:13:00
6:32 AM,17.6,17.6,100,30.18,5.0,WNW,3.5,-,N/A,,Clear,300,2013-12-01 12:32:00
6:53 AM,17.6,17.6,100,30.18,5.0,Calm,Calm,-,N/A,,Clear,0,2013-12-01 12:53:00
7:13 AM,17.6,17.6,100,30.18,5.0,Calm,Calm,-,N/A,,Clear,0,2013-12-01 13:13:00
7:32 AM,17.6,17.6,100,30.18,5.0,Calm,Calm,-,N/A,,Clear,0,2013-12-01 13:32:00
7:53 AM,17.6,17.6,100,30.18,5.0,Calm,Calm,-,N/A,,Clear,0,2013-12-01 13:53:00
8:12 AM,17.6,17.6,100,30.17,5.0,Calm,Calm,-,N/A,,Scattered Clouds,0,2013-12-01 14:12:00
8:33 AM,19.4,19.4,100,30.17,5.0,Calm,Calm,-,N/A,,Scattered Clouds,0,2013-12-01 14:33:00
8:52 AM,19.4,19.4,100,30.17,4.0,Calm,Calm,-,N/A,,Mist,0,2013-12-01 14:52:00
9:13 AM,21.2,21.2,100,30.17,4.0,Calm,Calm,-,N/A,,Overcast,0,2013-12-01 15:13:00
9:33 AM,21.2,21.2,100,30.16,4.0,Calm,Calm,-,N/A,,Overcast,0,2013-12-01 15:33:00
9:52 AM,23.0,23.0,100,30.17,5.0,Calm,Calm,-,N/A,,Overcast,0,2013-12-01 15:52:00
10:13 AM,24.8,23.0,93,30.16,5.0,Calm,Calm,-,N/A,,Mist,0,2013-12-01 16:13:00
10:33 AM,24.8,24.8,100,30.17,5.0,Calm,Calm,-,N/A,,Overcast,0,2013-12-01 16:33:00
10:52 AM,24.8,24.8,100,30.16,7.0,Calm,Calm,-,N/A,,Overcast,0,2013-12-01 16:52:00
11:13 AM,26.6,24.8,93,30.14,7.0,Calm,Calm,-,N/A,,Overcast,0,2013-12-01 17:13:00
11:33 AM,26.6,26.6,100,30.14,7.0,Calm,Calm,-,N/A,,Overcast,0,2013-12-01 17:33:00
11:52 AM,28.4,26.6,93,30.13,7.0,Calm,Calm,-,N/A,,Unknown,0,2013-12-01 17:52:00
12:13 PM,28.4,26.6,93,30.11,7.0,Calm,Calm,-,N/A,,Overcast,0,2013-12-01 18:13:00
12:33 PM,28.4,26.6,93,30.10,7.0,Calm,Calm,-,N/A,,Overcast,0,2013-12-01 18:33:00
12:52 PM,28.4,24.8,86,30.09,10.0,Calm,Calm,-,N/A,,Overcast,0,2013-12-01 18:52:00
1:13 PM,30.2,26.6,86,30.08,10.0,Calm,Calm,-,N/A,,Unknown,0,2013-12-01 19:13:00
1:32 PM,30.2,26.6,86,30.07,10.0,Calm,Calm,-,N/A,,Mostly Cloudy,0,2013-12-01 19:32:00
1:53 PM,30.2,26.6,86,30.06,10.0,Calm,Calm,-,N/A,,Overcast,0,2013-12-01 19:53:00
2:12 PM,30.2,26.6,86,30.04,10.0,East,3.5,-,N/A,,Unknown,80,2013-12-01 20:12:00
2:33 PM,32.0,26.6,80,30.04,10.0,Calm,Calm,-,N/A,,Overcast,0,2013-12-01 20:33:00
2:52 PM,32.0,26.6,80,30.04,10.0,Calm,Calm,-,N/A,,Overcast,0,2013-12-01 20:52:00
3:13 PM,30.2,26.6,86,30.03,10.0,ESE,3.5,-,N/A,,Overcast,120,2013-12-01 21:13:00
3:32 PM,30.2,26.6,86,30.03,10.0,ESE,3.5,-,N/A,,Overcast,120,2013-12-01 21:32:00
3:53 PM,30.2,26.6,86,30.02,10.0,SE,4.6,-,N/A,,Overcast,130,2013-12-01 21:53:00
4:13 PM,30.2,26.6,86,30.02,10.0,Calm,Calm,-,N/A,,Mostly Cloudy,0,2013-12-01 22:13:00
4:32 PM,30.2,24.8,80,30.02,7.0,SE,3.5,-,N/A,,Scattered Clouds,130,2013-12-01 22:32:00
4:53 PM,28.4,24.8,86,30.01,10.0,ESE,4.6,-,N/A,,Clear,110,2013-12-01 22:53:00
5:13 PM,26.6,24.8,93,30.01,7.0,Calm,Calm,-,N/A,,Clear,0,2013-12-01 23:13:00
5:32 PM,26.6,24.8,93,30.01,7.0,ESE,3.5,-,N/A,,Clear,120,2013-12-01 23:32:00
5:53 PM,28.4,24.8,86,30.01,7.0,SE,3.5,-,N/A,,Scattered Clouds,140,2013-12-01 23:53:00
6:12 PM,28.4,24.8,86,30.00,7.0,SE,3.5,-,N/A,,Mostly Cloudy,140,2013-12-02 00:12:00
6:33 PM,24.8,23.0,93,29.99,7.0,SE,3.5,-,N/A,,Unknown,140,2013-12-02 00:33:00
6:52 PM,26.6,24.8,93,29.98,7.0,Calm,Calm,-,N/A,,Unknown,0,2013-12-02 00:52:00
7:13 PM,24.8,24.8,100,29.97,7.0,Calm,Calm,-,N/A,,Unknown,0,2013-12-02 01:13:00
7:33 PM,24.8,23.0,93,29.96,5.0,ESE,3.5,-,N/A,,Mist,110,2013-12-02 01:33:00
7:52 PM,23.0,21.2,93,29.96,5.0,Calm,Calm,-,N/A,,Clear,0,2013-12-02 01:52:00
8:13 PM,24.8,24.8,100,29.95,5.0,Calm,Calm,-,N/A,,Scattered Clouds,0,2013-12-02 02:13:00
8:33 PM,24.8,24.8,100,29.94,5.0,ESE,3.5,-,N/A,,Mist,120,2013-12-02 02:33:00
8:52 PM,24.8,23.0,93,29.93,5.0,East,4.6,-,N/A,,Scattered Clouds,100,2013-12-02 02:52:00
9:13 PM,24.8,24.8,100,29.93,5.0,ESE,3.5,-,N/A,,Mist,110,2013-12-02 03:13:00
9:33 PM,24.8,24.8,100,29.92,5.0,SE,4.6,-,N/A,,Mist,130,2013-12-02 03:33:00
9:52 PM,26.6,24.8,93,29.92,7.0,Calm,Calm,-,N/A,,Mostly Cloudy,0,2013-12-02 03:52:00
10:13 PM,26.6,24.8,93,29.91,5.0,ESE,3.5,-,N/A,,Overcast,120,2013-12-02 04:13:00
10:33 PM,26.6,24.8,93,29.91,5.0,ESE,3.5,-,N/A,,Overcast,120,2013-12-02 04:33:00
10:52 PM,26.6,26.6,100,29.90,5.0,Calm,Calm,-,N/A,,Overcast,0,2013-12-02 04:52:00
11:13 PM,28.4,26.6,93,29.90,7.0,Calm,Calm,-,N/A,,Overcast,0,2013-12-02 05:13:00
11:33 PM,28.4,26.6,93,29.89,7.0,Calm,Calm,-,N/A,,Overcast,0,2013-12-02 05:33:00
11:52 PM,28.4,26.6,93,29.89,7.0,ESE,3.5,-,N/A,,Unknown,120,2013-12-02 05:52:00